FW8749 Weather Reports


Display with metric or nautical units.
time (UTC)temp
F
wind
direction
speed
MPH
gust
MPH
rain 1hr
in
rain 24hr
in
rain mn
in
humidity
%
barometer
mb
20260504185136 0 252 1.0 2.0 0.00 0.00 0.00 1010.1
20260504184632 0 248 1.0 2.0 0.00 0.00 0.00 1010.2
20260504184127 0 252 2.0 3.0 0.00 0.00 0.00 1010.6
20260504183625 0 204 4.0 5.0 0.00 0.00 0.00 1010.3
20260504183122 0 242 1.0 1.0 0.00 0.00 0.00 1010.6
20260504182620 0 216 1.0 1.0 0.00 0.00 0.00 1010.5
20260504182117 0 165 5.0 6.0 0.00 0.00 0.00 1010.6
20260504181614 0 198 3.0 5.0 0.00 0.00 0.00 1010.7
20260504181112 0 181 1.0 1.0 0.00 0.00 0.00 1010.8
20260504180611 0 97 3.0 3.0 0.00 0.00 0.00 1010.8
20260504180109 0 302 4.0 5.0 0.00 0.00 0.00 1010.8
20260504175606 0 284 2.0 2.0 0.00 0.00 0.00 1011.0
20260504175103 0 237 1.0 2.0 0.00 0.00 0.00 1010.9
20260504174601 0 282 1.0 2.0 0.00 0.00 0.00 1011.0
20260504174057 0 236 1.0 1.0 0.00 0.00 0.00 1010.9
20260504173554 0 190 0.0 0.0 0.00 0.00 0.00 1010.9
20260504173052 0 208 3.0 3.0 0.00 0.00 0.00 1010.9
20260504172547 0 178 3.0 3.0 0.00 0.00 0.00 1011.3
20260504172044 0 243 1.0 1.0 0.00 0.00 0.00 1011.1
20260504171541 0 229 0.0 0.0 0.00 0.00 0.00 1011.3
20260504171038 0 232 3.0 3.0 0.00 0.00 0.00 1011.3
20260504170534 0 303 6.0 9.0 0.00 0.00 0.00 1011.5
20260504150918 0 87 0.0 1.0 0.00 0.00 0.00 1012.7
20260504150415 0 188 2.0 2.0 0.00 0.00 0.00 1012.6
20260504140841 0 179 3.0 3.0 0.00 0.00 0.00 1012.9
20260504140337 0 341 1.0 2.0 0.00 0.00 0.00 1013.0
20260504130806 0 141 3.0 6.0 0.00 0.00 0.00 1013.5
20260504130302 0 237 2.0 3.0 0.00 0.00 0.00 1013.2
20260504120225 0 216 0.0 1.0 0.00 0.00 0.00 1013.7
20260504110653 0 226 0.0 0.0 0.00 0.00 0.00 1014.0
20260504110149 0 188 0.0 0.0 0.00 0.00 0.00 1014.1
20260504100615 0 208 0.0 0.0 0.00 0.00 0.00 1014.0
20260504100113 0 212 0.0 0.0 0.00 0.00 0.00 1013.9
20260504081506 0 222 0.0 0.0 0.00 0.00 0.00 1014.1
20260504081001 0 224 0.0 0.0 0.00 0.00 0.00 1014.1
20260504080458 0 227 0.0 0.0 0.00 0.00 0.00 1014.2
20260504050311 0 227 0.0 0.0 0.00 0.00 0.00 1014.2
20260504045808 0 225 0.0 0.0 0.00 0.00 0.00 1014.3
20260504045304 0 226 0.0 0.0 0.00 0.00 0.00 1014.1
20260504044800 0 224 0.0 0.0 0.00 0.00 0.00 1014.4
20260504044258 0 213 0.0 0.0 0.00 0.00 0.00 1014.3
20260504043755 0 217 0.0 0.0 0.00 0.00 0.00 1014.5
20260504043251 0 221 0.0 0.0 0.00 0.00 0.00 1014.2
20260504042749 0 215 0.0 0.0 0.00 0.00 0.00 1014.3
20260504042245 0 230 0.0 0.0 0.00 0.00 0.00 1014.1
20260504041742 0 225 0.0 0.0 0.00 0.00 0.00 1013.9
20260504041238 0 219 0.0 0.0 0.00 0.00 0.00 1014.1
20260504040734 0 226 0.0 0.0 0.00 0.00 0.00 1013.9
20260504040232 0 222 0.0 0.0 0.00 0.00 0.00 1013.9
20260504035727 0 220 0.0 0.0 0.00 0.00 0.00 1014.0
20260504035225 0 219 0.0 0.0 0.00 0.00 0.00 1014.0
20260504034722 0 216 0.0 0.0 0.00 0.00 0.00 1014.0
20260504034219 0 231 0.0 0.0 0.00 0.00 0.00 1013.8
20260504033717 0 226 0.0 0.0 0.00 0.00 0.00 1013.8
20260504033214 0 216 0.0 0.0 0.00 0.00 0.00 1013.8
20260504032711 0 214 0.0 0.0 0.00 0.00 0.00 1013.9
20260504032208 0 208 0.0 0.0 0.00 0.00 0.00 1013.9
20260504031705 0 218 0.0 0.0 0.00 0.00 0.00 1013.7
20260504031202 0 228 0.0 0.0 0.00 0.00 0.00 1013.6
20260504030658 0 225 0.0 0.0 0.00 0.00 0.00 1013.7
20260504030155 0 220 0.0 0.0 0.00 0.00 0.00 1013.5
20260504025652 0 210 0.0 0.0 0.00 0.00 0.00 1013.6
20260504025148 0 216 0.0 0.0 0.00 0.00 0.00 1013.8
20260504024646 0 209 0.0 0.0 0.00 0.00 0.00 1013.6
20260504024142 0 217 0.0 0.0 0.00 0.00 0.00 1013.6
20260504023639 0 224 0.0 0.0 0.00 0.00 0.00 1013.7
20260504023135 0 224 0.0 0.0 0.00 0.00 0.00 1013.6
20260504022631 0 224 0.0 0.0 0.00 0.00 0.00 1013.8
20260504022127 0 227 0.0 0.0 0.00 0.00 0.00 1013.6
20260504021626 0 207 0.0 0.0 0.00 0.00 0.00 1013.6
20260504021122 0 216 0.0 0.0 0.00 0.00 0.00 1013.7
20260504020619 0 228 0.0 0.0 0.00 0.00 0.00 1013.7
20260504020115 0 228 0.0 0.0 0.00 0.00 0.00 1013.6
20260504015612 0 228 0.0 0.0 0.00 0.00 0.00 1013.5
20260504015108 0 214 0.0 0.0 0.00 0.00 0.00 1013.6
20260504014604 0 204 1.0 1.0 0.00 0.00 0.00 1013.5
20260504014101 0 218 0.0 0.0 0.00 0.00 0.00 1013.3
20260504013559 0 223 0.0 0.0 0.00 0.00 0.00 1013.3
20260504013055 0 235 0.0 0.0 0.00 0.00 0.00 1013.4
20260504012553 0 226 0.0 0.0 0.00 0.00 0.00 1013.4
20260504012051 0 223 0.0 0.0 0.00 0.00 0.00 1013.2
20260504011547 0 214 0.0 0.0 0.00 0.00 0.00 1013.3
20260504011043 0 217 0.0 0.0 0.00 0.00 0.00 1013.4
20260504010539 0 212 0.0 0.0 0.00 0.00 0.00 1013.3
20260504010036 0 214 0.0 0.0 0.00 0.00 0.00 1013.1
20260504005532 0 217 0.0 0.0 0.00 0.00 0.00 1013.1
20260504005030 0 217 0.0 0.0 0.00 0.00 0.00 1013.2
20260504004528 0 218 0.0 0.0 0.00 0.00 0.00 1013.0
20260504004024 0 212 0.0 0.0 0.00 0.00 0.00 1013.1
20260504003520 0 206 1.0 1.0 0.00 0.00 0.00 1013.0
20260504003017 0 211 1.0 1.0 0.00 0.00 0.00 1012.8
20260504002514 0 204 1.0 1.0 0.00 0.00 0.00 1012.7
20260504002012 0 230 0.0 0.0 0.00 0.00 0.00 1012.7
20260504001509 0 222 0.0 1.0 0.00 0.00 0.00 1012.7
20260504001005 0 224 0.0 0.0 0.00 0.00 0.00 1012.6
20260504000503 0 228 0.0 0.0 0.00 0.00 0.00 1012.5
20260504000000 0 220 0.0 0.0 0.00 0.00 0.00 1012.4
20260503235458 0 225 0.0 0.0 0.00 0.00 0.00 1012.4
20260503234954 0 214 0.0 0.0 0.00 0.00 0.00 1012.6
20260503234452 0 215 0.0 0.0 0.00 0.00 0.00 1012.3
20260503233950 0 208 0.0 0.0 0.00 0.00 0.00 1012.6
20260503233446 0 217 0.0 0.0 0.00 0.00 0.00 1012.3
20260503232943 0 220 0.0 0.0 0.00 0.00 0.00 1012.3
20260503232440 0 214 0.0 0.0 0.00 0.00 0.00 1012.3
20260503231938 0 221 0.0 0.0 0.00 0.00 0.00 1012.5
20260503231435 0 246 1.0 2.0 0.00 0.00 0.00 1012.3
20260503230931 0 229 0.0 0.0 0.00 0.00 0.00 1012.4
20260503230428 0 233 1.0 2.0 0.00 0.00 0.00 1012.5
20260503225925 0 282 2.0 2.0 0.00 0.00 0.00 1012.4
20260503225422 0 259 1.0 1.0 0.00 0.00 0.00 1012.2
20260503224918 0 178 0.0 0.0 0.00 0.00 0.00 1012.2
20260503224415 0 204 3.0 3.0 0.00 0.00 0.00 1012.3
20260503223912 0 195 0.0 1.0 0.00 0.00 0.00 1012.1
20260503223410 0 304 1.0 1.0 0.00 0.00 0.00 1012.1
20260503222910 0 335 4.0 5.0 0.00 0.00 0.00 1012.3
20260503222409 0 261 0.0 0.0 0.00 0.00 0.00 1012.2
20260503221907 0 328 3.0 5.0 0.00 0.00 0.00 1012.2
20260503221406 0 208 1.0 2.0 0.00 0.00 0.00 1012.3
20260503220901 0 215 1.0 1.0 0.00 0.00 0.00 1012.6
20260503220358 0 237 1.0 2.0 0.00 0.00 0.00 1012.6
20260503215855 0 244 0.0 1.0 0.00 0.00 0.00 1012.3
20260503215352 0 315 4.0 10.0 0.00 0.00 0.00 1012.3
20260503214849 0 196 3.0 3.0 0.00 0.00 0.00 1012.4
20260503214347 0 25 1.0 1.0 0.00 0.00 0.00 1012.5
20260503213844 0 213 2.0 3.0 0.00 0.00 0.00 1012.0
20260503213342 0 29 4.0 6.0 0.00 0.00 0.00 1012.4
20260503212838 0 211 1.0 2.0 0.00 0.00 0.00 1012.3
20260503212336 0 219 2.0 3.0 0.00 0.00 0.00 1012.2
20260503211833 0 225 2.0 3.0 0.00 0.00 0.00 1012.1
20260503211330 0 2 7.0 11.0 0.00 0.00 0.00 1012.4
20260503210825 0 279 2.0 3.0 0.00 0.00 0.00 1012.2
20260503210323 0 27 9.0 10.0 0.00 0.00 0.00 1012.2
20260503205818 0 229 1.0 1.0 0.00 0.00 0.00 1012.3
20260503205314 0 209 2.0 2.0 0.00 0.00 0.00 1012.4
20260503203135 0 306 2.0 3.0 0.00 0.00 0.00 1012.5
20260503202632 0 306 2.0 3.0 0.00 0.00 0.00 1012.5
20260503202131 0 306 2.0 3.0 0.00 0.00 0.00 1012.5
20260503201628 0 281 5.0 9.0 0.00 0.00 0.00 1012.8
20260503201125 0 26 1.0 3.0 0.00 0.00 0.00 1012.8
20260503200621 0 21 6.0 8.0 0.00 0.00 0.00 1012.8
20260503200118 0 355 5.0 8.0 0.00 0.00 0.00 1012.8
20260503195615 0 305 3.0 5.0 0.00 0.00 0.00 1012.8
20260503195112 0 305 4.0 5.0 0.00 0.00 0.00 1013.2
20260503194609 0 285 4.0 7.0 0.00 0.00 0.00 1013.1
20260503194104 0 345 7.0 10.0 0.00 0.00 0.00 1013.2
20260503193601 0 3 6.0 9.0 0.00 0.00 0.00 1013.2
20260503193056 0 264 1.0 2.0 0.00 0.00 0.00 1013.1
20260503192552 0 336 2.0 3.0 0.00 0.00 0.00 1013.4
20260503192048 0 300 1.0 2.0 0.00 0.00 0.00 1013.2
20260503191545 0 215 4.0 5.0 0.00 0.00 0.00 1013.6
20260503191042 0 193 4.0 7.0 0.00 0.00 0.00 1013.6
20260503190539 0 311 3.0 6.0 0.00 0.00 0.00 1013.4
20260503190036 0 313 2.0 3.0 0.00 0.00 0.00 1013.5
20260503185533 0 209 4.0 7.0 0.00 0.00 0.00 1013.6